This is the latest recevied weather packets stored in our database for station/object M0TUM-1. If no packets are shown the sender has not sent any weather packets the latest 10 day(s).
| Time | Temp. | Humidity | Pressure | Rain* | Wind** | Luminosity | Snow |
|---|---|---|---|---|---|---|---|
| 1777639179 | 22.78° C | 29% | 1020.2 hPa | 0 mm | - | 614 W/m² | - |
| 1777638876 | 22.22° C | 30% | 1020.3 hPa | 0 mm | - | 621 W/m² | - |
| 1777638571 | 22.78° C | 29% | 1020.2 hPa | 0 mm | - | 642 W/m² | - |
| 1777638268 | 22.78° C | 29% | 1020.3 hPa | 0 mm | - | 645 W/m² | - |
| 1777637964 | 22.78° C | 29% | 1020.2 hPa | 0 mm | - | 645 W/m² | - |
| 1777637661 | 22.78° C | 28% | 1020.5 hPa | 0 mm | - | 639 W/m² | - |
| 1777637358 | 22.22° C | 29% | 1020.8 hPa | 0 mm | - | 635 W/m² | - |
| 1777637055 | 22.22° C | 29% | 1020.4 hPa | 0 mm | - | 636 W/m² | - |
| 1777636750 | 22.78° C | 30% | 1020.7 hPa | 0 mm | - | 630 W/m² | - |
| 1777636447 | 22.22° C | 31% | 1020.6 hPa | 0 mm | - | 619 W/m² | - |
| 1777636142 | 21.67° C | 30% | 1020.7 hPa | 0 mm | - | 623 W/m² | - |
| 1777635838 | 22.22° C | 30% | 1020.9 hPa | 0 mm | - | 602 W/m² | - |
| 1777635534 | 21.67° C | 31% | 1021.1 hPa | 0 mm | - | 544 W/m² | - |
| 1777635231 | 21.67° C | 30% | 1021.1 hPa | 0 mm | - | 585 W/m² | - |
| 1777634928 | 21.67° C | 30% | 1020.7 hPa | 0 mm | - | 639 W/m² | - |
| 1777634625 | 21.67° C | 30% | 1020.9 hPa | 0 mm | - | 643 W/m² | - |
| 1777634322 | 21.67° C | 30% | 1021 hPa | 0 mm | - | 658 W/m² | - |
| 1777634018 | 21.11° C | 31% | 1020.9 hPa | 0 mm | - | 676 W/m² | - |
| 1777633715 | 21.11° C | 31% | 1021.2 hPa | 0 mm | - | 688 W/m² | - |
| 1777633414 | 21.11° C | 31% | 1021 hPa | 0 mm | - | 694 W/m² | - |
| 1777633111 | 20.56° C | 32% | 1021.1 hPa | 0 mm | - | 682 W/m² | - |
| 1777632807 | 20.56° C | 33% | 1020.9 hPa | 0 mm | - | 686 W/m² | - |
| 1777632503 | 20.56° C | 33% | 1021.1 hPa | 0 mm | - | 688 W/m² | - |
| 1777632200 | 20° C | 34% | 1021.4 hPa | 0 mm | - | 696 W/m² | - |
| 1777631897 | 20.56° C | 33% | 1021.4 hPa | 0 mm | - | 678 W/m² | - |
* Rain latest hour (hover to see other rain measurements)
** Current wind speed in m/s (hover to see current wind gust speed)